EW7861 Weather Reports


time (UTC)temp
C
wind
direction
speed
KPH
gust
KPH
rain 1hr
cm
rain 24hr
cm
rain mn
cm
humidity
%
barometer
mb
20260505075133 13 270 6.4 12.9 0.00 0.00 0.00 86
20260505074134 13 270 8.0 11.3 0.00 0.00 0.00 86
20260505073133 13 293 9.7 16.1 0.00 0.00 0.00 86
20260505072134 13 270 8.0 16.1 0.00 0.00 0.00 86
20260505071133 13 270 4.8 11.3 0.00 0.00 0.00 86
20260505070132 13 270 6.4 14.5 0.00 0.00 0.00 86
20260505065155 13 293 8.0 16.1 0.00 0.00 0.00 86
20260505064135 13 293 9.7 16.1 0.00 0.00 0.00 86
20260505063135 13 270 9.7 19.3 0.00 0.00 0.00 85
20260505062215 13 270 6.4 11.3 0.00 0.00 0.00 85
20260505061155 13 293 8.0 14.5 0.00 0.00 0.00 85
20260505060135 13 293 9.7 16.1 0.00 0.00 0.00 85
20260505055135 13 293 9.7 16.1 0.00 0.00 0.00 85
20260505054135 13 270 8.0 17.7 0.00 0.00 0.00 84
20260505053215 13 293 9.7 16.1 0.00 0.00 0.00 84
20260505052133 13 293 9.7 17.7 0.00 0.00 0.00 84
20260505051213 13 293 8.0 12.9 0.00 0.00 0.00 84
20260505050133 13 270 8.0 17.7 0.00 0.00 0.00 83
20260505041133 15 293 8.0 14.5 0.00 0.00 0.00 80
20260505040154 15 293 8.0 17.7 0.00 0.00 0.00 79
20260505035133 15 270 8.0 14.5 0.00 0.00 0.00 78
20260505034133 15 293 11.3 17.7 0.00 0.00 0.00 77
20260505033133 16 293 11.3 19.3 0.00 0.00 0.00 75
20260505032133 16 293 8.0 17.7 0.00 0.00 0.00 74
20260505031133 17 270 11.3 17.7 0.00 0.00 0.00 72
20260505025153 18 293 9.7 17.7 0.00 0.00 0.00 69
20260505024153 18 293 8.0 20.9 0.00 0.00 0.00 67
20260505023133 18 270 12.9 24.1 0.00 0.00 0.00 66
20260505022213 19 293 11.3 22.5 0.00 0.00 0.00 64
20260505021133 20 293 8.0 17.7 0.00 0.00 0.00 62
20260505020133 20 270 8.0 12.9 0.00 0.00 0.00 61
20260505015134 21 270 9.7 20.9 0.00 0.00 0.00 59
20260505014133 21 270 9.7 20.9 0.00 0.00 0.00 58
20260505013133 21 293 9.7 22.5 0.00 0.00 0.00 59
20260505012227 21 293 11.3 19.3 0.00 0.00 0.00 57
20260505011133 22 270 12.9 25.7 0.00 0.00 0.00 56
20260505010133 22 270 12.9 22.5 0.00 0.00 0.00 56
20260505005133 22 270 11.3 22.5 0.00 0.00 0.00 55
20260505004214 23 270 9.7 19.3 0.00 0.00 0.00 54
20260505003133 23 270 9.7 19.3 0.00 0.00 0.00 53
20260505002153 24 293 9.7 19.3 0.00 0.00 0.00 53
20260505001134 24 270 12.9 22.5 0.00 0.00 0.00 52
20260505000133 24 293 12.9 22.5 0.00 0.00 0.00 49
20260504235133 25 270 6.4 14.5 0.00 0.00 0.00 50
20260504234134 25 270 8.0 16.1 0.00 0.00 0.00 50
20260504233133 25 293 8.0 17.7 0.00 0.00 0.00 49
20260504232133 26 270 8.0 16.1 0.00 0.00 0.00 48
20260504231133 26 225 3.2 14.5 0.00 0.00 0.00 48
20260504230234 25 225 3.2 9.7 0.00 0.00 0.00 50
20260504225134 25 225 3.2 9.7 0.00 0.00 0.00 52
20260504224133 25 158 1.6 4.8 0.00 0.00 0.00 53
20260504223133 25 158 3.2 6.4 0.00 0.00 0.00 54
20260504222133 25 158 3.2 9.7 0.00 0.00 0.00 54
20260504221133 25 158 3.2 9.7 0.00 0.00 0.00 54
20260504220133 25 158 3.2 8.0 0.00 0.00 0.00 54
20260504215153 24 135 3.2 9.7 0.00 0.00 0.00 55
20260504214133 23 158 4.8 11.3 0.00 0.00 0.00 55
20260504213133 24 158 4.8 11.3 0.00 0.00 0.00 55
20260504212133 24 158 3.2 11.3 0.00 0.00 0.00 54
20260504211133 24 158 4.8 11.3 0.00 0.00 0.00 56
20260504210153 23 113 4.8 14.5 0.00 0.00 0.00 56
20260504205133 23 158 6.4 14.5 0.00 0.00 0.00 57
20260504204133 23 180 4.8 11.3 0.00 0.00 0.00 57
20260504203154 23 158 6.4 12.9 0.00 0.00 0.00 58
20260504202133 23 158 4.8 12.9 0.00 0.00 0.00 57
20260504201153 22 158 4.8 12.9 0.00 0.00 0.00 58
20260504200133 22 180 6.4 12.9 0.00 0.00 0.00 60
20260504195133 22 158 4.8 11.3 0.00 0.00 0.00 59
20260504194133 22 158 4.8 11.3 0.00 0.00 0.00 60
20260504193134 22 158 3.2 11.3 0.00 0.00 0.00 60
20260504192134 21 158 4.8 12.9 0.00 0.00 0.00 60
20260504191133 21 158 4.8 9.7 0.00 0.00 0.00 63
20260504190133 21 180 4.8 11.3 0.00 0.00 0.00 62
20260504185134 20 180 6.4 11.3 0.00 0.00 0.00 63
20260504184134 20 180 6.4 11.3 0.00 0.00 0.00 64
20260504183154 20 158 6.4 14.5 0.00 0.00 0.00 64
20260504182133 20 180 6.4 12.9 0.00 0.00 0.00 64
20260504181133 20 158 3.2 11.3 0.00 0.00 0.00 64
20260504180154 20 180 3.2 9.7 0.00 0.00 0.00 66
20260504175133 20 248 1.6 6.4 0.00 0.00 0.00 66
20260504174133 19 248 1.6 6.4 0.00 0.00 0.00 68
20260504173153 18 135 1.6 6.4 0.00 0.00 0.00 70
20260504172133 17 135 1.6 4.8 0.00 0.00 0.00 72
20260504171154 17 225 1.6 6.4 0.00 0.00 0.00 75
20260504170153 16 225 3.2 6.4 0.00 0.00 0.00 76
20260504160133 15 270 3.2 9.7 0.00 0.00 0.00 81
20260504151134 13 270 4.8 11.3 0.00 0.00 0.00 84
20260504150133 13 270 4.8 9.7 0.00 0.00 0.00 84
20260504141133 13 270 3.2 4.8 0.00 0.00 0.00 84
20260504140153 13 270 3.2 8.0 0.00 0.00 0.00 83
20260504130133 14 270 4.8 9.7 0.00 0.00 0.00 80
20260504120133 15 248 3.2 9.7 0.00 0.00 0.00 76
20260504110154 16 293 6.4 11.3 0.00 0.00 0.00 71
20260504100134 17 315 8.0 14.5 0.00 0.00 0.00 70
20260504090134 17 293 3.2 6.4 0.00 0.00 0.00 70
20260504081133 18 0.0 0.0 0.00 0.00 0.00 65
20260504080134 20 0.0 0.0 0.00 0.00 0.00 59